QXE2113 KPDX-KSEA

Flight info

Callsign QXE2113
Flight time 0h 37m
Altitude 20000
Route COUGA KRIEG HAWKZ8
Aircraft E75L/M-SDE3GILORVW/S

Departure

Time 2026-05-06 00:06
Airport Portland International Airport (KPDX)

Arrival

Time 2026-05-06 00:43
Airport Seattle–Tacoma International Airport (KSEA)
Time Latitude Longitude Altitude Speed Heading
2026-05-05 23:40 45.58673 -122.59297 30 ft 0 kts 53°
2026-05-05 23:55 45.58672 -122.59298 30 ft 2 kts 53°
2026-05-05 23:55 45.58657 -122.59327 31 ft 4 kts 50°
2026-05-05 23:56 45.58640 -122.59357 31 ft 4 kts 60°
2026-05-05 23:56 45.58637 -122.59387 32 ft 2 kts 127°
2026-05-05 23:56 45.58638 -122.59389 32 ft 0 kts 129°
2026-05-05 23:59 45.58629 -122.59374 31 ft 7 kts 130°
2026-05-06 00:00 45.58572 -122.59276 29 ft 17 kts 129°
2026-05-06 00:00 45.58496 -122.59141 29 ft 18 kts 130°
2026-05-06 00:00 45.58414 -122.58994 28 ft 18 kts 124°
2026-05-06 00:00 45.58360 -122.58861 31 ft 13 kts 119°
2026-05-06 00:01 45.58313 -122.58740 30 ft 16 kts 119°
2026-05-06 00:01 45.58257 -122.58596 35 ft 17 kts 119°
2026-05-06 00:01 45.58208 -122.58472 30 ft 15 kts 118°
2026-05-06 00:01 45.58177 -122.58394 28 ft 8 kts 123°
2026-05-06 00:02 45.58142 -122.58360 28 ft 2 kts 174°
2026-05-06 00:02 45.58140 -122.58360 28 ft 0 kts 175°
2026-05-06 00:03 45.58125 -122.58362 28 ft 5 kts 190°
2026-05-06 00:03 45.58090 -122.58392 29 ft 6 kts 234°
2026-05-06 00:03 45.58078 -122.58444 30 ft 5 kts 269°
2026-05-06 00:03 45.58089 -122.58495 31 ft 3 kts 299°
2026-05-06 00:05 45.58288 -122.58999 32 ft 84 kts 299°
2026-05-06 00:05 45.58697 -122.60043 48 ft 151 kts 299°
2026-05-06 00:05 45.59240 -122.61402 361 ft 158 kts 300°
2026-05-06 00:06 45.59791 -122.62765 724 ft 161 kts 299°
2026-05-06 00:06 45.60352 -122.64194 1066 ft 167 kts 300°
2026-05-06 00:06 45.60905 -122.65669 1387 ft 170 kts 297°
2026-05-06 00:06 45.61428 -122.67185 1734 ft 171 kts 295°
2026-05-06 00:07 45.62057 -122.68619 2138 ft 174 kts 320°
2026-05-06 00:07 45.63130 -122.69313 2597 ft 169 kts 359°
2026-05-06 00:07 45.64285 -122.68763 3114 ft 180 kts 26°
2026-05-06 00:07 45.65439 -122.67868 3583 ft 199 kts 27°
2026-05-06 00:08 45.66710 -122.66858 4108 ft 219 kts 27°
2026-05-06 00:08 45.68196 -122.66069 4666 ft 238 kts 13°
2026-05-06 00:08 45.69895 -122.65621 5238 ft 258 kts
2026-05-06 00:08 45.71722 -122.65376 5758 ft 270 kts
2026-05-06 00:09 45.73629 -122.65220 6294 ft 276 kts
2026-05-06 00:09 45.75559 -122.65110 6779 ft 279 kts
2026-05-06 00:09 45.77477 -122.65172 7253 ft 276 kts 357°
2026-05-06 00:09 45.79403 -122.65311 7739 ft 277 kts 357°
2026-05-06 00:10 45.81330 -122.65467 8240 ft 280 kts 357°
2026-05-06 00:10 45.83274 -122.65625 8734 ft 280 kts 357°
2026-05-06 00:10 45.85221 -122.65782 9246 ft 282 kts 357°
2026-05-06 00:10 45.87193 -122.65941 9770 ft 283 kts 357°
2026-05-06 00:11 45.89173 -122.66101 10251 ft 288 kts 357°
2026-05-06 00:11 45.91205 -122.66268 10739 ft 298 kts 357°
2026-05-06 00:11 45.93302 -122.66439 11234 ft 307 kts 357°
2026-05-06 00:11 45.95474 -122.66616 11746 ft 316 kts 357°
2026-05-06 00:12 45.97682 -122.66797 12251 ft 317 kts 357°
2026-05-06 00:12 45.99881 -122.66977 12750 ft 317 kts 357°
2026-05-06 00:12 46.02083 -122.67156 13263 ft 318 kts 357°
2026-05-06 00:12 46.04298 -122.67337 13773 ft 322 kts 357°
2026-05-06 00:13 46.06540 -122.67504 14241 ft 324 kts 358°
2026-05-06 00:13 46.08790 -122.67704 14713 ft 324 kts 354°
2026-05-06 00:13 46.11033 -122.68105 15197 ft 326 kts 353°
2026-05-06 00:13 46.13287 -122.68534 15686 ft 328 kts 353°
2026-05-06 00:14 46.15547 -122.68977 16189 ft 329 kts 353°
2026-05-06 00:14 46.17831 -122.69427 16684 ft 330 kts 353°
2026-05-06 00:14 46.20090 -122.69870 17198 ft 334 kts 353°
2026-05-06 00:14 46.22397 -122.70325 17706 ft 336 kts 353°
2026-05-06 00:15 46.24749 -122.70787 18228 ft 338 kts 353°
2026-05-06 00:15 46.27057 -122.71241 18715 ft 340 kts 353°
2026-05-06 00:15 46.29439 -122.71698 19193 ft 341 kts 353°
2026-05-06 00:15 46.31775 -122.72108 19657 ft 343 kts 355°
2026-05-06 00:16 46.34173 -122.72283 19886 ft 346 kts 359°
2026-05-06 00:16 46.36575 -122.72390 19954 ft 345 kts 359°
2026-05-06 00:16 46.38979 -122.72477 19997 ft 345 kts 359°
2026-05-06 00:16 46.41380 -122.72561 19998 ft 345 kts 359°
2026-05-06 00:17 46.43780 -122.72645 19999 ft 346 kts 359°
2026-05-06 00:17 46.46185 -122.72730 20002 ft 346 kts 359°
2026-05-06 00:17 46.48593 -122.72816 20017 ft 346 kts 359°
2026-05-06 00:17 46.50996 -122.72902 20006 ft 342 kts 359°
2026-05-06 00:18 46.53404 -122.72989 19997 ft 342 kts 359°
2026-05-06 00:18 46.55756 -122.73074 20009 ft 343 kts 359°
2026-05-06 00:18 46.58136 -122.73159 20003 ft 343 kts 359°
2026-05-06 00:18 46.60551 -122.73247 19999 ft 343 kts 359°
2026-05-06 00:19 46.62905 -122.73332 19995 ft 343 kts 359°
2026-05-06 00:19 46.65286 -122.73418 20005 ft 343 kts 359°
2026-05-06 00:19 46.67719 -122.73506 19826 ft 345 kts 359°
2026-05-06 00:19 46.70079 -122.73592 19477 ft 348 kts 359°
2026-05-06 00:20 46.72531 -122.73681 19128 ft 353 kts 359°
2026-05-06 00:20 46.74986 -122.73711 18783 ft 352 kts
2026-05-06 00:20 46.77376 -122.73036 18438 ft 351 kts 17°
2026-05-06 00:20 46.79643 -122.71728 18065 ft 350 kts 24°
2026-05-06 00:21 46.81741 -122.69949 17674 ft 350 kts 36°
2026-05-06 00:21 46.83638 -122.67723 17304 ft 348 kts 36°
2026-05-06 00:21 46.85536 -122.65575 16928 ft 345 kts 36°
2026-05-06 00:21 46.87431 -122.63425 16551 ft 344 kts 36°
2026-05-06 00:22 46.89315 -122.61283 16178 ft 342 kts 36°
2026-05-06 00:22 46.91218 -122.59208 15806 ft 340 kts 31°
2026-05-06 00:22 46.93259 -122.57483 15442 ft 338 kts 26°
2026-05-06 00:22 46.95367 -122.55972 15080 ft 337 kts 24°
2026-05-06 00:23 46.97524 -122.54644 14722 ft 335 kts 18°
2026-05-06 00:23 46.99744 -122.53612 14358 ft 335 kts 17°
2026-05-06 00:23 47.01979 -122.52618 14015 ft 334 kts 16°
2026-05-06 00:23 47.04199 -122.51654 13653 ft 333 kts 15°
2026-05-06 00:24 47.06429 -122.50751 13261 ft 331 kts 14°
2026-05-06 00:24 47.08656 -122.49977 12851 ft 328 kts
2026-05-06 00:24 47.10907 -122.49505 12423 ft 326 kts
2026-05-06 00:24 47.13157 -122.49073 12016 ft 325 kts
2026-05-06 00:25 47.15395 -122.48643 11594 ft 323 kts
2026-05-06 00:25 47.17599 -122.48226 11175 ft 317 kts
2026-05-06 00:25 47.19775 -122.47889 10757 ft 311 kts
2026-05-06 00:25 47.21910 -122.47564 10345 ft 306 kts
2026-05-06 00:26 47.24014 -122.47245 9957 ft 302 kts
2026-05-06 00:26 47.26086 -122.46930 9523 ft 298 kts
2026-05-06 00:26 47.28143 -122.46615 9090 ft 295 kts
2026-05-06 00:26 47.30165 -122.46305 8655 ft 292 kts
2026-05-06 00:27 47.32174 -122.45990 8229 ft 289 kts
2026-05-06 00:27 47.34164 -122.45656 7804 ft 286 kts
2026-05-06 00:27 47.36150 -122.45540 7374 ft 285 kts
2026-05-06 00:27 47.38115 -122.45524 7116 ft 279 kts 360°
2026-05-06 00:28 47.39996 -122.45526 7045 ft 269 kts 360°
2026-05-06 00:28 47.41863 -122.45527 7009 ft 269 kts 359°
2026-05-06 00:28 47.43775 -122.45530 7009 ft 272 kts 359°
2026-05-06 00:28 47.45643 -122.45533 7023 ft 272 kts 359°
2026-05-06 00:29 47.47538 -122.45534 7006 ft 272 kts 359°
2026-05-06 00:29 47.49427 -122.45499 7005 ft 272 kts 359°
2026-05-06 00:29 47.51349 -122.45536 7002 ft 272 kts 359°
2026-05-06 00:29 47.53217 -122.45583 7013 ft 272 kts 359°
2026-05-06 00:30 47.55111 -122.45629 6996 ft 272 kts 359°
2026-05-06 00:30 47.57015 -122.45772 6993 ft 271 kts 348°
2026-05-06 00:30 47.58693 -122.47018 6935 ft 275 kts 319°
2026-05-06 00:30 47.59988 -122.49054 6713 ft 275 kts 313°
2026-05-06 00:31 47.61275 -122.51171 6468 ft 272 kts 313°
2026-05-06 00:31 47.62518 -122.53227 6232 ft 270 kts 313°
2026-05-06 00:31 47.63780 -122.55322 6084 ft 268 kts 313°
2026-05-06 00:31 47.65006 -122.57357 6023 ft 269 kts 313°
2026-05-06 00:32 47.66252 -122.59428 5994 ft 269 kts 313°
2026-05-06 00:32 47.67543 -122.61430 5976 ft 268 kts 323°
2026-05-06 00:32 47.69203 -122.62640 5971 ft 267 kts 343°
2026-05-06 00:32 47.71044 -122.62949 5982 ft 268 kts 359°
2026-05-06 00:33 47.72895 -122.62595 5978 ft 269 kts 11°
2026-05-06 00:33 47.74695 -122.61839 5953 ft 269 kts 18°
2026-05-06 00:33 47.76382 -122.60641 5940 ft 271 kts 31°
2026-05-06 00:33 47.77865 -122.58915 5936 ft 273 kts 44°
2026-05-06 00:34 47.79030 -122.56679 5944 ft 275 kts 56°
2026-05-06 00:34 47.79830 -122.54087 5961 ft 277 kts 71°
2026-05-06 00:34 47.80211 -122.51278 5954 ft 279 kts 85°
2026-05-06 00:34 47.80123 -122.48395 5961 ft 281 kts 97°
2026-05-06 00:35 47.79575 -122.45605 5970 ft 282 kts 112°
2026-05-06 00:35 47.78623 -122.43166 6065 ft 263 kts 131°
2026-05-06 00:35 47.77344 -122.41446 6071 ft 236 kts 142°
2026-05-06 00:35 47.76050 -122.40056 5811 ft 225 kts 146°
2026-05-06 00:36 47.74756 -122.38813 5535 ft 217 kts 148°
2026-05-06 00:36 47.73451 -122.37757 5262 ft 211 kts 153°
2026-05-06 00:36 47.72152 -122.36819 4999 ft 206 kts 154°
2026-05-06 00:36 47.70879 -122.35915 4762 ft 198 kts 154°
2026-05-06 00:37 47.69673 -122.35054 4509 ft 188 kts 154°
2026-05-06 00:37 47.68518 -122.34235 4243 ft 180 kts 154°
2026-05-06 00:37 47.67406 -122.33444 4076 ft 174 kts 154°
2026-05-06 00:37 47.66344 -122.32689 4004 ft 167 kts 154°
2026-05-06 00:38 47.65269 -122.32037 3826 ft 168 kts 166°
2026-05-06 00:38 47.64120 -122.31736 3658 ft 166 kts 176°
2026-05-06 00:38 47.62968 -122.31657 3481 ft 166 kts 180°
2026-05-06 00:38 47.61824 -122.31651 3326 ft 163 kts 182°
2026-05-06 00:39 47.60685 -122.31657 3247 ft 163 kts 182°
2026-05-06 00:39 47.59555 -122.31672 3181 ft 164 kts 182°
2026-05-06 00:39 47.58413 -122.31688 3001 ft 162 kts 181°
2026-05-06 00:39 47.57321 -122.31693 2800 ft 151 kts 181°
2026-05-06 00:40 47.56297 -122.31698 2551 ft 147 kts 182°
2026-05-06 00:40 47.55293 -122.31708 2308 ft 138 kts 182°
2026-05-06 00:40 47.54332 -122.31740 2095 ft 137 kts 184°
2026-05-06 00:40 47.53373 -122.31787 1881 ft 141 kts 182°
2026-05-06 00:41 47.52391 -122.31800 1718 ft 140 kts 181°
2026-05-06 00:41 47.51412 -122.31777 1507 ft 143 kts 181°
2026-05-06 00:41 47.50443 -122.31764 1319 ft 137 kts 180°
2026-05-06 00:41 47.49810 -122.31756 1187 ft 138 kts 182°
2026-05-06 00:42 47.48844 -122.31770 967 ft 138 kts 184°
2026-05-06 00:42 47.47882 -122.31776 751 ft 138 kts 184°
2026-05-06 00:42 47.46934 -122.31799 546 ft 137 kts 182°
2026-05-06 00:42 47.45989 -122.31793 407 ft 130 kts 184°
2026-05-06 00:43 47.45188 -122.31815 391 ft 94 kts 179°
2026-05-06 00:43 47.44703 -122.31810 391 ft 40 kts 172°
2026-05-06 00:43 47.44509 -122.31679 391 ft 28 kts 150°
2026-05-06 00:43 47.44355 -122.31549 391 ft 22 kts 152°
2026-05-06 00:44 47.44342 -122.31538 391 ft 0 kts 150°
2026-05-06 00:45 47.44342 -122.31537 391 ft 1 kts 150°
2026-05-06 00:45 47.44303 -122.31498 391 ft 12 kts 140°
2026-05-06 00:45 47.44241 -122.31371 391 ft 17 kts 112°
2026-05-06 00:45 47.44201 -122.31201 391 ft 18 kts 116°
2026-05-06 00:46 47.44114 -122.31062 391 ft 19 kts 149°
2026-05-06 00:46 47.43992 -122.30957 391 ft 21 kts 149°
2026-05-06 00:46 47.43908 -122.30826 391 ft 17 kts 105°
2026-05-06 00:46 47.43923 -122.30657 391 ft 15 kts 38°
2026-05-06 00:47 47.43988 -122.30591 391 ft 11 kts 63°
2026-05-06 00:47 47.44053 -122.30545 391 ft 12 kts
2026-05-06 00:47 47.44142 -122.30545 391 ft 14 kts 360°
2026-05-06 00:47 47.44238 -122.30547 391 ft 14 kts 359°
2026-05-06 00:48 47.44343 -122.30543 391 ft 16 kts
2026-05-06 00:48 47.44421 -122.30542 391 ft 10 kts 360°
2026-05-06 00:48 47.44476 -122.30542 391 ft 8 kts 360°
2026-05-06 00:48 47.44512 -122.30541 391 ft 1 kts 18°
2026-05-06 00:49 47.44524 -122.30525 391 ft 3 kts 56°
2026-05-06 00:49 47.44526 -122.30487 391 ft 5 kts 107°
2026-05-06 00:49 47.44512 -122.30453 391 ft 3 kts 128°
2026-05-06 00:49 47.44502 -122.30454 391 ft 0 kts 91°